Location: Unspecified
(0.0000°N, 0.0000°E)
Time: 12:10:07
(UTC+00:00)

deb OV3-4 - Pass Details

Date: 16 June 2025
Orbit: 581 x 4212 km, 40.6° (Epoch: 19 July)

Event Time Altitude Azimuth Distance (km) Brightness Sun altitude
Rises 23:57:05 0° 296° (WNW) 8,267 ? -66.6°
Reaches altitude 10° 00:04:03 10° 289° (WNW) 6,910 ? -66.6°
Enters shadow 00:10:18 20° 278° (W) 5,651 ? -66.5°
